DELTA 1 DEB, 12530

Orbit data source: Space-Track

DELTA 1 DEB, 12530 is space debris in SSO originally from a launch on Thu, 29 Jul 1976 UTC launched from the Air Force Western Test Range (AFWTR). Debris objects in space refer to the collection of defunct objects orbiting the Earth. Examples of debris include non-operational satellites, rocket bodies, and fragments generated from explosions, collisions, or faulty payload assembly.

Loading next visibility...
Identifier
12530, 1976-077DK
Orbit
SSO
Country
Flag of USUS
Related business
Manufacturer
Unknown
Mission
Spacecraft
Bus & Motor
Unknown
Mass
Unknown
Launch date (UTC)
1976-07-29 (50 years ago)
Launch vehicle
Unknown
Launch site
Air Force Western Test Range (AFWTR)
Object type
Payload
Rocket body
Debris
Shape & HBR
Unknown shape, 0.4 m
Radar Cross Section
Medium (>0.1 m² and <1 m²)

Expand to show TLE details & history
Last TLE update: 10 hours ago

TLE from 10 hours ago
0 DELTA 1 DEB
1 12530U 76077DK  26126.43131012 -.00000029  00000-0  14217-3 0  9990
2 12530 102.5629 115.0112 0126901  32.4625 122.3324 12.27055173 77969
Epoch: 2026-05-06T10:21Z
TLE epoch observation values (Epoch: 2026-05-06T10:21:05.194Z)
Latitude
23.39917°
Longitude
-79.04542°
Altitude
1,619.233 km
Speed
7.039 km/s
True Right ascension
20h 02m 04s
True Declination
23° 17' 15"
Sunlit
Object was in daylight at epoch
Visualization orbit readout
Latitude
Unknown
Longitude
Unknown
Altitude
Unknown
Speed
Unknown
Apparent Right ascension
Unknown
Apparent Declination
Unknown
Sunlit
N/A
Visualization observer readout
Local Sidereal Time
03:56:42
Azimuth
Unknown
Elevation
Unknown
Doppler factor
Unknown
Orbital elements
Apogee altitude
1,660.315 km
Perigee altitude
1,458.854 km
Semi-major axis
7,937.722 km
Eccentricity
0.01269
Inclination
102.5629°
RAAN
115.0112°
Arg. of periapsis
32.4625°
True anomaly
123.55069°
Mean anomaly
122.3324°
Eccentric anomaly
122.94258°
Mean motion
3.06902 °/min
Orbital period
117.3 mins
BSTAR
0.00014217
Loading maneuver chart data...
Computing Atmospheric mass density...
Loading historical data...
Loading historical data...
Loading historical data...
Loading historical data...
Loading historical data...
Loading historical data...
Loading historical data...

Documentation

Showing up to 5 results
|